Silver Bay, MN

6:45 AM CDT on September 20, 2017 (GMT -0500)
Silver Bay Municipal

Weather History for KBFW - November, 2013

Change the Weather History Date:

Monday, November 11, 2013

  Actual Average Record
Temperature  
Mean Temperature 16 °F -  
Max Temperature 23 °F 36 °F 53 °F (2003)
Min Temperature 10 °F 21 °F 8 °F (1997)
Degree Days  
Heating Degree Days 48    
Moisture  
Dew Point 4 °F    
Average Humidity 57    
Maximum Humidity 73    
Minimum Humidity 42    
Precipitation  
Precipitation 0.00 in - - ()
Sea Level Pressure  
Sea Level Pressure 30.35 in    
Wind  
Wind Speed 8 mph (NW)    
Max Wind Speed 15 mph    
Max Gust Speed 26 mph    
Visibility 10 miles    
Events Snow    
Averages and records for this station are not official NWS values.
T = Trace of Precipitation, MM = Missing Value Source: NWS Daily Summary

Daily Weather History Graph

Daily Weather History Graph

Search for Another Location

Airport or City:

Trip Planner

Search our weather history database for the weather conditions in past years. The results will help you decide how hot, cold, wet, or windy it might be!

Date:

Astronomy

Nov. 11, 2013 Rise Set
Actual Time 7:04 AM CST 4:34 PM CST
Civil Twilight 6:31 AM CST 5:07 PM CST
Nautical Twilight 5:54 AM CST 5:44 PM CST
Astronomical Twilight 5:18 AM CST 6:20 PM CST
Moon 1:37 PM CST (11/11) 12:25 AM CST (11/11)
Length of Visible Light 10h 36m
Length of Day
9h 30m
Waxing Gibbous, 66% of the Moon is Illuminated
Nov 11
Waxing Gibbous
Nov 17
Full
Nov 25
Last Quarter
Dec 2
New
Dec 9
First Quarter

Hourly Weather History & Observations

Time (CST) Temp. Windchill Dew Point Humidity Pressure Visibility Wind Dir Wind Speed Gust Speed Precip Events Conditions
12:13 AM 21.2 °F 11.7 °F 10.4 °F 63% 30.07 in 10.0 mi NW 8.1 mph - N/A   Clear
12:33 AM 21.2 °F 13.6 °F 10.4 °F 63% 30.09 in 10.0 mi NNW 5.8 mph 18.4 mph N/A   Clear
12:53 AM 19.4 °F 8.6 °F 8.6 °F 63% 30.10 in 10.0 mi NW 9.2 mph 16.1 mph N/A   Clear
1:13 AM 19.4 °F 7.9 °F 8.6 °F 63% 30.11 in 10.0 mi NW 10.4 mph 16.1 mph N/A   Clear
1:33 AM 17.6 °F 5.7 °F 6.8 °F 63% 30.12 in 10.0 mi NW 10.4 mph - N/A   Clear
1:53 AM 17.6 °F 6.4 °F 6.8 °F 63% 30.14 in 10.0 mi NW 9.2 mph 23.0 mph N/A   Clear
2:13 AM 15.8 °F 3.4 °F 5.0 °F 62% 30.15 in 10.0 mi NW 10.4 mph 24.2 mph N/A   Clear
2:33 AM 15.8 °F 6.1 °F 6.8 °F 68% 30.17 in 7.0 mi NW 6.9 mph 10.4 mph N/A Snow Light Snow
2:53 AM 15.8 °F 3.4 °F 3.2 °F 58% 30.17 in 10.0 mi NW 10.4 mph 18.4 mph N/A Snow Light Snow
3:13 AM 15.8 °F 5.1 °F 5.0 °F 62% 30.18 in 10.0 mi NW 8.1 mph - N/A Snow Light Snow
3:33 AM 15.8 °F 5.1 °F 5.0 °F 62% 30.19 in 10.0 mi NW 8.1 mph - N/A   Clear
3:53 AM 15.8 °F 8.6 °F 6.8 °F 68% 30.20 in 10.0 mi WNW 4.6 mph - N/A Snow Light Snow
4:13 AM 15.8 °F 6.1 °F 3.2 °F 58% 30.21 in 10.0 mi NW 6.9 mph - N/A   Clear
4:33 AM 15.8 °F 8.6 °F 5.0 °F 62% 30.22 in 10.0 mi NW 4.6 mph - N/A   Clear
4:53 AM 15.8 °F 7.2 °F 5.0 °F 62% 30.22 in 10.0 mi WNW 5.8 mph - N/A   Clear
5:13 AM 15.8 °F 6.1 °F 3.2 °F 58% 30.23 in 10.0 mi NW 6.9 mph - N/A   Clear
5:33 AM 15.8 °F 8.6 °F 3.2 °F 58% 30.23 in 10.0 mi NW 4.6 mph - N/A   Clear
5:53 AM 15.8 °F 7.2 °F 3.2 °F 58% 30.24 in 10.0 mi WNW 5.8 mph - N/A   Clear
6:13 AM 15.8 °F 7.2 °F 3.2 °F 58% 30.25 in 10.0 mi WNW 5.8 mph - N/A   Clear
6:33 AM 15.8 °F 8.6 °F 3.2 °F 58% 30.26 in 10.0 mi WNW 4.6 mph - N/A   Clear
6:53 AM 14.0 °F 6.5 °F 3.2 °F 62% 30.27 in 10.0 mi NW 4.6 mph - N/A   Clear
7:13 AM 14.0 °F 3.9 °F 5.0 °F 67% 30.28 in 10.0 mi WNW 6.9 mph - N/A   Clear
7:33 AM 15.8 °F 8.6 °F 5.0 °F 62% 30.29 in 10.0 mi WNW 4.6 mph - N/A   Clear
7:53 AM 15.8 °F 8.6 °F 5.0 °F 62% 30.29 in 10.0 mi WNW 4.6 mph - N/A   Clear
8:13 AM 15.8 °F 7.2 °F 5.0 °F 62% 30.29 in 10.0 mi WNW 5.8 mph 19.6 mph N/A   Clear
8:33 AM 17.6 °F 6.4 °F 5.0 °F 58% 30.30 in 10.0 mi WNW 9.2 mph 18.4 mph N/A   Clear
8:53 AM 17.6 °F 8.2 °F 5.0 °F 58% 30.30 in 10.0 mi WNW 6.9 mph 18.4 mph N/A   Clear
9:13 AM 17.6 °F 4.3 °F 3.2 °F 53% 30.31 in 10.0 mi WNW 12.7 mph 21.9 mph N/A   Clear
9:33 AM 19.4 °F 6.6 °F 3.2 °F 49% 30.31 in 10.0 mi NW 12.7 mph 21.9 mph N/A   Clear
9:53 AM 19.4 °F 5.5 °F 3.2 °F 49% 30.32 in 10.0 mi NW 15.0 mph 25.3 mph N/A   Clear
10:13 AM 19.4 °F 7.9 °F 3.2 °F 49% 30.33 in 10.0 mi WNW 10.4 mph 24.2 mph N/A   Clear
10:34 AM 19.4 °F 9.5 °F 3.2 °F 49% 30.33 in 10.0 mi NW 8.1 mph 24.2 mph N/A   Clear
10:53 AM 21.2 °F 8.3 °F 1.4 °F 42% 30.33 in 10.0 mi NW 13.8 mph 23.0 mph N/A   Clear
11:13 AM 21.2 °F 9.5 °F 3.2 °F 46% 30.34 in 10.0 mi WNW 11.5 mph 18.4 mph N/A   Clear
11:33 AM 21.2 °F 7.8 °F 1.4 °F 42% 30.33 in 10.0 mi WNW 15.0 mph 23.0 mph N/A   Clear
11:53 AM 21.2 °F 10.9 °F 1.4 °F 42% 30.33 in 10.0 mi NW 9.2 mph 23.0 mph N/A   Clear
12:13 PM 21.2 °F 8.9 °F 3.2 °F 46% 30.33 in 10.0 mi WNW 12.7 mph 25.3 mph N/A   Clear
12:33 PM 23.0 °F 12.4 °F 3.2 °F 43% 30.33 in 10.0 mi WNW 10.4 mph 21.9 mph N/A   Clear
12:53 PM 21.2 °F 9.5 °F 3.2 °F 46% 30.34 in 10.0 mi WNW 11.5 mph 24.2 mph N/A   Clear
1:13 PM 21.2 °F 10.1 °F 5.0 °F 50% 30.35 in 10.0 mi NW 10.4 mph 20.7 mph N/A   Clear
1:33 PM 21.2 °F 10.1 °F 5.0 °F 50% 30.36 in 10.0 mi WNW 10.4 mph 19.6 mph N/A   Clear
1:53 PM 21.2 °F 8.3 °F 3.2 °F 46% 30.37 in 10.0 mi NW 13.8 mph 26.5 mph N/A   Clear
2:13 PM 21.2 °F 8.9 °F 3.2 °F 46% 30.37 in 10.0 mi WNW 12.7 mph 24.2 mph N/A   Clear
2:34 PM 21.2 °F 10.9 °F 5.0 °F 50% 30.39 in 10.0 mi NW 9.2 mph 20.7 mph N/A   Clear
2:53 PM 21.2 °F 10.1 °F 3.2 °F 46% 30.39 in 10.0 mi NW 10.4 mph 25.3 mph N/A   Clear
3:13 PM 21.2 °F 10.9 °F 3.2 °F 46% 30.40 in 10.0 mi NW 9.2 mph 19.6 mph N/A   Clear
3:33 PM 19.4 °F 7.2 °F 3.2 °F 49% 30.41 in 10.0 mi WNW 11.5 mph 19.6 mph N/A   Clear
3:53 PM 19.4 °F 8.6 °F 3.2 °F 49% 30.41 in 10.0 mi NW 9.2 mph 24.2 mph N/A   Clear
4:13 PM 19.4 °F 7.2 °F 3.2 °F 49% 30.42 in 10.0 mi WNW 11.5 mph 23.0 mph N/A   Clear
4:33 PM 17.6 °F 6.4 °F 3.2 °F 53% 30.43 in 10.0 mi NW 9.2 mph 16.1 mph N/A   Clear
4:53 PM 17.6 °F 8.2 °F 3.2 °F 53% 30.44 in 10.0 mi NW 6.9 mph - N/A   Clear
5:13 PM 17.6 °F 9.3 °F 5.0 °F 58% 30.44 in 10.0 mi WNW 5.8 mph - N/A   Clear
5:33 PM 17.6 °F 9.3 °F 3.2 °F 53% 30.45 in 10.0 mi WNW 5.8 mph - N/A   Clear
5:53 PM 15.8 °F 7.2 °F 3.2 °F 58% 30.47 in 10.0 mi NW 5.8 mph 17.3 mph N/A   Clear
6:13 PM 15.8 °F 2.7 °F 3.2 °F 58% 30.47 in 10.0 mi NW 11.5 mph 19.6 mph N/A   Clear
6:33 PM 15.8 °F 5.1 °F 3.2 °F 58% 30.48 in 10.0 mi WNW 8.1 mph - N/A   Clear
6:53 PM 15.8 °F 3.4 °F 3.2 °F 58% 30.49 in 10.0 mi WNW 10.4 mph 18.4 mph N/A   Clear
7:13 PM 15.8 °F 8.6 °F 3.2 °F 58% 30.49 in 10.0 mi WNW 4.6 mph - N/A   Clear
7:33 PM 15.8 °F 6.1 °F 3.2 °F 58% 30.50 in 10.0 mi WNW 6.9 mph - N/A   Clear
7:53 PM 15.8 °F 6.1 °F 3.2 °F 58% 30.51 in 10.0 mi WNW 6.9 mph - N/A   Clear
8:13 PM 15.8 °F 5.1 °F 3.2 °F 58% 30.52 in 10.0 mi NW 8.1 mph - N/A   Clear
8:33 PM 14.0 °F 8.2 °F 3.2 °F 62% 30.53 in 10.0 mi WNW 3.5 mph - N/A   Clear
8:53 PM 14.0 °F - 3.2 °F 62% 30.54 in 10.0 mi Calm Calm - N/A   Clear
9:13 PM 12.2 °F - 3.2 °F 67% 30.55 in 10.0 mi Calm Calm - N/A   Clear
9:33 PM 12.2 °F 4.3 °F 3.2 °F 67% 30.55 in 10.0 mi WNW 4.6 mph - N/A   Clear
9:53 PM 12.2 °F - 3.2 °F 67% 30.56 in 10.0 mi Calm Calm - N/A   Clear
10:13 PM 12.2 °F - 3.2 °F 67% 30.56 in 10.0 mi Calm Calm - N/A   Clear
10:33 PM 12.2 °F - 3.2 °F 67% 30.56 in 10.0 mi Calm Calm - N/A Snow Light Snow
10:53 PM 10.4 °F - 3.2 °F 73% 30.56 in 7.0 mi Calm Calm - N/A Snow Light Snow
11:13 PM 10.4 °F - 3.2 °F 73% 30.57 in 10.0 mi Calm Calm - N/A Snow Light Snow
11:33 PM 10.4 °F 4.0 °F 3.2 °F 73% 30.57 in 10.0 mi West 3.5 mph - N/A   Clear
11:53 PM 10.4 °F - 3.2 °F 73% 30.59 in 10.0 mi Calm Calm - N/A   Clear